Flag for U.S.A. Weather past 2 weeks in Port St. Lucie, Florida, U.S.A.

Now
77 °F

Clear.


Feels Like: 78 °F
Forecast: 77 / 90 °F
Wind: No wind

Location: Witham Field Airport

Current Time: Aug 29, 2014 at 1:50:57 AM

Latest Report: Aug 29, 2014 at 1:15 AM


Visibility: 10 mi

Pressure: 30.03 "Hg

Humidity: 83%

Dew point: 72 °F

Location of Port St. LucieLocation

Historic Weather in Port St. Lucie — Graph

°F

Port St. Lucie temperature yesterday

Maximum temperature yesterday: 86 °F (at 9:47 AM)
Minimum temperature yesterday: 73 °F (at 4:35 AM)
Average temperature yesterday: 79 °F

Past Weeks' High & Low Weather Summary

 TemperatureHumidityPressure
High91 °F (Aug 19, 2:47 PM)100% (Aug 15, 4:55 PM)30.15 "Hg (Aug 15, 4:55 PM)
Low72 °F (Aug 16, 1:35 AM)49% (Aug 24, 1:47 PM)29.76 "Hg (Aug 25, 2:55 AM)
Average80 °F82%30.00 "Hg
* Reported Aug 14 12:15 AM — Aug 29 12:35 AM, Port St. Lucie, Weather by CustomWeather, © 2014

Note: Actual official high and low records may vary slightly from our data, if they occured in-between our weather recording intervals... More about our weather records

Advertising

Port St. Lucie weather history for previous 24 hours

 ConditionsComfort  
Time TempWeatherWind HumidityBarometerVisibility
12:35 AM
Aug 29
75 °FClear.No wind89%30.04 "Hg10 mi
12:15 AM75 °FClear.No wind89%30.04 "Hg10 mi
11:55 PM
Aug 28
77 °FClear.No wind83%30.04 "Hg10 mi
11:35 PM77 °FClear.No wind83%30.05 "Hg10 mi
11:15 PM77 °FPassing clouds.5 mph83%30.05 "Hg10 mi
10:55 PM77 °FPassing clouds.5 mph83%30.04 "Hg10 mi
10:35 PM77 °FThundershowers. Passing clouds.5 mph83%30.05 "Hg10 mi
10:15 PM77 °FThundershowers. Clear.3 mph83%30.04 "Hg10 mi
9:55 PM77 °FThundershowers. Passing clouds.6 mph89%30.03 "Hg10 mi
9:35 PM77 °FPassing clouds.10 mph89%30.04 "Hg10 mi
9:15 PM81 °FThundershowers. Passing clouds.12 mph79%30.03 "Hg10 mi
8:55 PM82 °FThundershowers. Passing clouds.10 mph74%30.02 "Hg10 mi
8:35 PM82 °FThundershowers. Scattered clouds.8 mph74%30.01 "Hg10 mi
8:15 PM82 °FThundershowers. Sunny.8 mph74%30.00 "Hg10 mi
6:47 PM84 °FBroken clouds.16 mph74%29.97 "Hg7 mi
5:47 PM86 °FBroken clouds.16 mph70%29.97 "Hg7 mi
4:47 PM86 °FBroken clouds.16 mph70%29.98 "Hg7 mi
3:47 PM84 °FBroken clouds.12 mph70%29.98 "Hg7 mi
2:47 PM86 °FBroken clouds.10 mph62%29.99 "Hg7 mi
1:47 PM84 °FBroken clouds.15 mph74%30.01 "Hg7 mi
12:47 PM86 °FScattered showers. Broken clouds.12 mph66%30.03 "Hg7 mi
11:47 AM86 °FBroken clouds.7 mph70%30.02 "Hg7 mi
10:47 AM86 °FBroken clouds.7 mph66%30.02 "Hg7 mi
9:47 AM86 °FPartly sunny.7 mph66%30.02 "Hg10 mi
8:47 AM82 °FPartly sunny.3 mph79%30.02 "Hg10 mi
7:55 AM77 °FPassing clouds.No wind94%30.01 "Hg10 mi
6:50 AM75 °FPassing clouds.No wind89%29.99 "Hg10 mi
6:15 AM73 °FClear.No wind94%29.98 "Hg10 mi
5:55 AM73 °FClear.No wind94%29.98 "Hg10 mi
5:35 AM73 °FClear.No wind94%29.98 "Hg10 mi
5:15 AM75 °FPassing clouds.No wind89%29.97 "Hg10 mi
4:55 AM73 °FClear.No wind94%29.97 "Hg10 mi
4:35 AM73 °FClear.No wind94%29.97 "Hg10 mi
4:15 AM77 °FClear.No wind83%29.98 "Hg10 mi
3:55 AM77 °FClear.No wind83%29.98 "Hg10 mi
3:35 AM75 °FPassing clouds.No wind89%29.98 "Hg10 mi
3:15 AM75 °FPassing clouds.No wind89%29.98 "Hg10 mi
2:55 AM77 °FClear.No wind83%29.98 "Hg10 mi
2:35 AM75 °FClear.No wind89%29.99 "Hg10 mi
2:15 AM77 °FClear.No wind83%29.99 "Hg10 mi
1:55 AM77 °FClear.No wind83%29.99 "Hg10 mi
1:35 AM77 °FClear.No wind83%30.00 "Hg10 mi
1:15 AM79 °FClear.No wind79%30.01 "Hg10 mi
Weather by CustomWeather, © 2014

See weather overviewHow to use our weather pages